This demonstration page uses our WeatherBlox Daily Observations layout. Learn more.

Left ArrowRight Arrow

31.31129, -92.44514

Hourly Observations for December 3, 2021

Temp ( °F °C ) Dew Point ( °F °C ) Humidity (%) Winds ( mph kmh ) Pressure ( in mb ) Visibility ( mi km ) Precip ( " mm )
12:53 am 00:53 Clear 59 15 57 13.9 93 93 Calm 30.11 1020 8 13 0.00 0.00
1:53 am 01:53 Clear with Mist and Fog 59 15 57 13.9 93 93 SW 5 7 30.10 1019 4 6 0.00 0.00
2:32 am 02:32 Clear with Mist and Fog 59 15 57 13.9 93 93 SSW 3 6 30.09 1019 1 2 0.00 0.00
2:34 am 02:34 Mostly Cloudy with Mist and Fog 59 15 57 13.9 93 93 Calm 30.09 1019 1 1 0.00 0.00
2:42 am 02:42 Mostly Cloudy with Fog 58 14.4 56 13.3 93 93 Calm 30.09 1019 0 0 0.00 0.00
2:53 am 02:53 Mostly Cloudy with Fog 57 13.9 55 12.8 93 93 Calm 30.10 1019 0 0 0.00 0.00
3:07 am 03:07 Mostly Cloudy with Mist and Fog 59 15 57 13.9 93 93 SW 5 7 30.09 1019 1 2 0.00 0.00
3:11 am 03:11 Mostly Cloudy with Mist and Fog 59 15 57 13.9 93 93 SW 5 7 30.09 1019 3 5 0.00 0.00
3:18 am 03:18 Partly Cloudy with Mist and Fog 59 15 57 13.9 93 93 SW 5 7 30.09 1019 5 8 0.00 0.00
3:40 am 03:40 Partly Cloudy with Mist and Fog 59 15 57 13.9 93 93 S 3 6 30.08 1019 2 2 0.00 0.00
3:42 am 03:42 Mostly Cloudy with Mist and Fog 59 15 57 13.9 93 93 S 3 6 30.08 1019 1 1 0.00 0.00
3:53 am 03:53 Mostly Cloudy with Mist and Fog 60 15.6 58 14.4 93 93 SSW 5 7 30.09 1019 1 2 0.00 0.00
3:58 am 03:58 Mostly Cloudy with Mist and Fog 60 15.6 58 14.4 93 93 SW 6 9 30.08 1019 3 5 0.00 0.00
4:20 am 04:20 Cloudy with Mist and Fog 60 15.6 58 14.4 93 93 SSW 5 7 30.08 1019 3 4 0.00 0.00
4:27 am 04:27 Cloudy with Mist and Fog 60 15.6 58 14.4 93 93 SSW 5 7 30.08 1019 5 8 0.00 0.00
4:46 am 04:46 Cloudy with Mist and Fog 60 15.6 58 14.4 93 93 Calm 30.08 1019 2 3 0.00 0.00
4:53 am 04:53 Cloudy with Mist and Fog 60 15.6 58 14.4 93 93 Calm 30.09 1019 2 3 0.00 0.00
5:17 am 05:17 Mostly Cloudy with Mist and Fog 61 16.1 59 15 93 93 SW 6 9 30.09 1019 1 1 0.00 0.00
5:49 am 05:49 Mostly Cloudy with Fog 61 16 61 16 100 100 Calm 30.09 1019 0 0 0.00 0.00
5:53 am 05:53 Mostly Cloudy with Fog 61 16.1 60 15.6 97 97 Calm 30.10 1019 0 0 0.00 0.00
6:34 am 06:34 Mostly Cloudy with Fog 61 16.1 60 15.6 97 97 Calm 30.10 1019 1 1 0.00 0.00
6:42 am 06:42 Mostly Cloudy with Fog 61 16.1 60 15.6 97 97 Calm 30.11 1020 0 0 0.00 0.00
6:53 am 06:53 Mostly Cloudy with Fog 61 16.1 60 15.6 97 97 Calm 30.12 1020 0 0 0.00 0.00
7:08 am 07:08 Mostly Cloudy with Mist and Fog 62 16.7 60 15.6 93 93 SW 5 7 30.12 1020 1 1 0.00 0.00
7:32 am 07:32 Cloudy with Fog 61 16.1 60 15.6 97 97 Calm 30.12 1020 0 0 0.00 0.00
7:53 am 07:53 Cloudy with Fog 62 16.7 60 15.6 93 93 SE 5 7 30.13 1020 0 0 0.00 0.00
8:17 am 08:17 Cloudy with Fog 62 16.7 60 15.6 93 93 Calm 30.13 1020 0 0 0.00 0.00
8:35 am 08:35 Cloudy with Fog 62 16.7 61 16.1 96 96 SE 3 6 30.13 1020 1 1 0.00 0.00
8:43 am 08:43 Mostly Cloudy with Mist and Fog 63 17.2 62 16.7 97 97 SSE 5 7 30.13 1020 1 2 0.00 0.00
8:53 am 08:53 Mostly Cloudy with Mist and Fog 64 17.8 62 16.7 93 93 S 3 6 30.14 1021 1 2 0.00 0.00
9:03 am 09:03 Mostly Cloudy with Mist and Fog 65 18.3 62 16.7 90 90 SSW 3 6 30.14 1021 3 5 0.00 0.00
9:20 am 09:20 Mostly Cloudy with Mist and Fog 67 19.4 63 17.2 87 87 SSW 7 11 30.14 1021 3 5 0.00 0.00
9:53 am 09:53 Cloudy with Haze 69 20.6 63 17.2 81 81 SW 7 11 30.14 1021 3 5 0.00 0.00
10:23 am 10:23 Mostly Cloudy 71 21.7 64 17.8 79 79 VRB 5 7 30.13 1020 10 16 0.00 0.00
10:53 am 10:53 Mostly Sunny 72 22.2 63 17.2 73 73 SSW 5 7 30.12 1020 10 16 0.00 0.00
11:53 am 11:53 Mostly Sunny 75 23.9 62 16.7 64 64 SW 7 11 30.09 1019 10 16 0.00 0.00
12:53 pm 12:53 Partly Cloudy 76 24.4 61 16.1 60 60 SSW 8 13 30.05 1018 10 16 0.00 0.00
1:53 pm 13:53 Partly Cloudy 76 24.4 61 16.1 60 60 SW 8 13 30.03 1017 10 16 0.00 0.00
2:53 pm 14:53 Sunny 76 24.4 61 16.1 60 60 SSW 9 15 30.03 1017 10 16 0.00 0.00
3:53 pm 15:53 Sunny 75 23.9 61 16.1 62 62 S 7 11 30.02 1017 10 16 0.00 0.00
4:53 pm 16:53 Partly Cloudy 73 22.8 61 16.1 66 66 SSW 5 7 30.03 1017 10 16 0.00 0.00
5:53 pm 17:53 Mostly Cloudy 71 21.7 62 16.7 73 73 S 5 7 30.04 1017 10 16 0.00 0.00
6:53 pm 18:53 Mostly Cloudy 68 20 61 16.1 78 78 S 6 9 30.05 1018 10 16 0.00 0.00
7:53 pm 19:53 Partly Cloudy 66 18.9 61 16.1 84 84 SSE 7 11 30.05 1018 10 16 0.00 0.00
8:53 pm 20:53 Clear 65 18.3 60 15.6 84 84 SSE 5 7 30.05 1018 10 16 0.00 0.00
9:53 pm 21:53 Clear 67 19.4 61 16.1 81 81 S 7 11 30.06 1018 10 16 0.00 0.00
10:53 pm 22:53 Clear 67 19.4 58 14.4 73 73 Calm 30.05 1018 10 16 0.00 0.00
11:53 pm 23:53 Mostly Clear 66 18.9 60 15.6 81 81 SW 3 6 30.06 1018 10 16 0.00 0.00

Powered by AerisWeather